#timestamp,LO_Frequency,Hit,StdDev 
1524913215.9,286046998.1,N
1524913235.7,286047002.3,N
1524913255.6,286047000.9,N
1524913275.4,286046998.7,N
1524913295.3,286046998.5,N
1524913315.1,286046999.1,N
1524913316.0,286046999.1,N
1524913335.8,286046998.6,N
1524913355.7,286047000.9,N
1524913375.5,286047000.6,N
1524913395.3,286047001.9,N
1524913415.2,286047001.1,N
1524913435.0,286047001.0,N
1524913435.9,286047001.0,N
1524913455.8,286047000.6,N
1524913475.6,286046999.8,N
1524913495.4,286047001.7,N
1524913515.3,286047002.3,N
1524913535.1,286047000.3,N
1524913555.9,286047001.2,N
1524913575.7,286046999.9,N
1524913595.5,286047000.9,N
1524913615.4,286047001.1,N
1524913635.2,286047001.2,N
1524913655.0,286047000.6,N
1524913655.9,286047000.6,N
1524913675.8,286047000.0,N
1524913695.6,286047002.8,N
1524913715.5,286047002.3,N
1524913735.3,286047002.7,N
1524913755.1,286047002.0,N
1524913775.9,286047002.8,N
1524913795.7,286047004.4,Y
1524913815.6,286047001.3,P
1524913835.4,286047001.7,P
1524913855.2,286047004.0,P
1524913875.1,286047004.0,Y
1524913876.0,286047004.0,P
1524913895.8,286047002.8,N
1524913915.6,286046998.9,N
1524913935.5,286046998.6,N
1524913955.3,286046999.5,N
1524913975.2,286046999.0,N
1524913995.9,286046996.8,N
1524914015.7,286046998.7,N
1524914035.6,286046996.9,N
1524914055.4,286046999.1,N
1524914075.2,286046996.5,N
1524914095.1,286046996.5,N
1524914096.0,286046996.5,N
1524914115.8,286046999.4,N
1524914135.7,286046999.2,N
1524914155.5,286046999.2,N
1524914175.3,286046996.6,N
1524914195.2,286046996.9,N
1524914215.0,286046999.0,N
1524914215.9,286046999.0,N
1524914235.7,286047000.5,N
1524914255.6,286047000.1,N
1524914275.4,286047000.0,N
1524914295.3,286047000.5,N
1524914315.1,286047001.2,N
1524914316.0,286047001.2,N
1524914335.8,286047000.0,N
1524914355.7,286047001.1,N
1524914375.5,286047001.0,N
1524914395.4,286047001.0,N
1524914415.2,286047000.9,N
1524914435.0,286046999.4,N
1524914435.9,286046999.4,N
1524914455.8,286046999.0,N
1524914475.6,286046998.8,N
1524914495.4,286047001.1,N
1524914515.3,286047001.1,N
1524914535.1,286047000.9,N
1524914555.9,286047000.7,N
1524914575.7,286047000.2,N
1524914595.5,286047000.6,N
1524914615.4,286046999.8,N
1524914635.2,286047000.7,N
1524914655.0,286046999.9,N
1524914656.0,286046999.9,N
1524914675.8,286047000.2,N
1524914695.6,286047002.8,N
1524914715.5,286047001.6,N
1524914735.3,286047002.8,Y
1524914755.1,286047000.1,P
1524914775.9,286047000.1,N
1524914795.7,286047001.0,P
1524914815.6,286046998.4,Y
1524914835.4,286047000.6,P
1524914855.2,286047000.4,P
1524914875.1,286047000.8,P
1524914876.0,286047000.8,Y
1524914895.8,286046998.6,P
1524914915.7,286046999.5,N
1524914935.5,286046999.5,N
1524914955.3,286046997.2,Y
1524914975.2,286046998.9,P
1524914995.0,286047001.0,P
1524914995.9,286047001.0,N
1524915015.7,286047000.9,N
1524915035.6,286047001.0,N
1524915055.4,286046998.2,N
1524915075.3,286046998.5,N
1524915095.1,286046998.5,N
1524915096.0,286046998.5,N
1524915115.8,286046998.3,N
1524915135.7,286046998.8,N
1524915155.5,286046999.0,N
1524915175.3,286046999.6,N
1524915195.2,286046999.0,N
1524915215.0,286046996.8,Y
1524915215.9,286046996.8,P
1524915235.8,286046996.6,N
1524915255.6,286047001.1,N
1524915275.4,286047000.4,N
1524915295.3,286047002.8,N
1524915315.1,286047000.9,N
1524915335.9,286047000.6,N
1524915355.7,286047000.6,N
1524915375.5,286046998.7,N
1524915395.4,286046998.1,N
1524915415.2,286046998.7,N
1524915435.0,286047000.9,N
1524915436.0,286047000.9,N
1524915455.8,286047000.9,N
1524915475.6,286047000.5,N
1524915495.5,286047002.4,N
1524915515.3,286047000.1,N
1524915535.1,286047002.8,N
1524915555.9,286047000.1,N
1524915575.7,286047001.0,N
1524915595.6,286047000.4,N
1524915615.4,286047000.1,N
1524915635.2,286047000.2,N
1524915655.1,286047000.6,N
1524915656.0,286047000.6,N
1524915675.8,286046999.8,N
1524915695.6,286047001.0,N
1524915715.5,286047001.1,N
1524915735.3,286047000.0,N
1524915755.2,286047000.0,N
1524915775.9,286047001.5,N
1524915795.7,286047001.5,N
1524915815.6,286047001.3,N
1524915835.4,286047001.4,N
1524915855.2,286047001.9,N
1524915875.1,286047001.6,N
1524915876.0,286047001.6,N
1524915895.8,286047000.1,N
1524915915.7,286047000.3,N
1524915935.5,286047001.0,N
1524915955.3,286047000.5,N
1524915975.2,286047000.7,N
1524915995.9,286047001.2,N
1524916015.7,286046999.9,N
1524916035.6,286047002.0,N
1524916085.4,286047001.0,E
1524916125.4,286046998.4,E
1524916135.3,286047000.7,N
1524916155.1,286046999.9,P
1524916175.9,286047001.1,N
1524916195.7,286047000.0,N
1524916215.6,286047000.1,N
1524916235.4,286047002.2,Y
1524916255.2,286046999.9,P
1524916275.1,286046999.9,N
1524916276.0,286046999.9,N
1524916295.8,286046999.9,N
1524916315.7,286047002.0,Y
1524916335.5,286047004.0,P
1524916355.3,286047003.9,N
1524916375.2,286047001.4,N
1524916395.0,286047003.8,N
1524916395.9,286047003.8,N
1524916415.8,286047005.8,Y
1524916435.6,286047002.4,P
1524916455.4,286046999.8,N
1524916475.3,286047000.9,N
1524916495.1,286047001.0,N
1524916515.8,286047000.6,N
1524916535.7,286046998.1,N
1524916555.5,286046999.5,N
1524916575.4,286046998.2,N
1524916595.2,286047001.1,N
1524916615.0,286046998.8,N
1524916615.9,286046998.8,N
1524916635.8,286046999.6,N
1524916655.6,286046997.8,N
1524916675.5,286046996.6,N
1524916695.3,286046999.2,N
1524916715.1,286046998.9,N
1524916735.9,286047000.7,N
1524916755.7,286047000.9,N
1524916775.5,286047000.5,N
1524916795.4,286047000.4,N
